| 5/6/2026 | Assetmark Inc. | 2,787 | $80K | 0.0% | +1,001.6% | 0.001% | |
| 5/6/2026 | PeakShares LLC | 1,000 | $29K | 0.0% | N/A | 0.000% | |
| 5/6/2026 | Financiere des Professionnels Fonds d investissement inc. | 6,904 | $199K | 0.0% | N/A | 0.002% | |
| 5/6/2026 | Bessemer Group Inc. | 3,566 | $102K | 0.0% | -98.3% | 0.001% | |
| 5/6/2026 | Allspring Global Investments Holdings LLC | 15,421 | $429K | 0.0% | +12.4% | 0.004% | |
| 5/6/2026 | Independent Financial Group LLC | 11,637 | $335K | 0.0% | N/A | 0.003% | |
| 5/5/2026 | Wealthfront Advisers LLC | 21,605 | $623K | 0.0% | +34.9% | 0.006% | |
| 5/5/2026 | D.A. Davidson & CO. | 9,392 | $271K | 0.0% | +12.7% | 0.003% | |
| 5/5/2026 | Bank of New York Mellon Corp | 1,815,366 | $52.34M | 0.0% | +4.5% | 0.495% | |
| 5/5/2026 | NFSG Corp | 5,935 | $171K | 0.0% | +52.1% | 0.002% | |
Get the Latest News and Ratings for IONQ and Related Stocks Enter your email address below to receive the latest news and analysts' ratings for IonQ and its competitors with MarketBeat's FREE daily newsletter.
|
| 5/5/2026 | Livforsakringsbolaget Skandia Omsesidigt | 45,923 | $1.29M | 0.1% | +2,086.8% | 0.013% | |
| 5/5/2026 | Sanctuary Advisors LLC | 40,404 | $1.17M | 0.0% | +7.8% | 0.011% | |
| 5/5/2026 | Sigma Planning Corp | 10,607 | $306K | 0.0% | +4.2% | 0.003% | |
| 5/4/2026 | Emerald Advisers LLC | 447,729 | $12.91M | 0.4% | -1.1% | 0.122% | |
| 5/4/2026 | Bleakley Financial Group LLC | 28,340 | $817K | 0.0% | +39.0% | 0.008% | |
| 5/4/2026 | Principal Financial Group Inc. | 110,386 | $3.18M | 0.0% | -11.4% | 0.030% | |
| 5/4/2026 | Chicago Partners Investment Group LLC | 6,231 | $180K | 0.0% | +14.9% | 0.002% | |
| 5/4/2026 | Tradewinds LLC. | 5,000 | $144K | 0.1% | -8.8% | 0.001% | |
| 5/2/2026 | International Assets Investment Management LLC | 17,676 | $492K | 0.0% | +4.0% | 0.005% | |
| 5/2/2026 | Diversify Wealth Management LLC | 20,239 | $583K | 0.0% | +20.1% | 0.006% | |
| 5/2/2026 | Carnegie Investment Counsel | 166,965 | $4.81M | 0.1% | -44.2% | 0.046% | |
| 5/1/2026 | Fifth Third Bancorp | 27,796 | $801K | 0.0% | +22,498.4% | 0.008% | |
| 4/30/2026 | Summit Securities Group LLC | 2,025 | $58K | 0.0% | N/A | 0.001% | |
| 4/30/2026 | Kestra Advisory Services LLC | 156,084 | $4.50M | 0.0% | -7.6% | 0.043% | |
| 4/30/2026 | Sumitomo Mitsui Trust Group Inc. | 567,593 | $16.36M | 0.0% | -0.8% | 0.155% | |
| 4/30/2026 | Resona Asset Management Co. Ltd. | 84,216 | $2.40M | 0.0% | -3.2% | 0.023% | |
| 4/29/2026 | Swedbank AB | 149,503 | $4.31M | 0.0% | +147.7% | 0.041% | |
| 4/28/2026 | Westfuller Advisors LLC | 2,587 | $75K | 0.0% | -48.4% | 0.001% | |
| 4/28/2026 | Abel Hall LLC | 19,066 | $550K | 0.1% | +10.5% | 0.005% | |
| 4/28/2026 | Bogart Wealth LLC | 1,273 | $37K | 0.0% | +24.4% | 0.000% | |
| 4/28/2026 | GM Advisory Group LLC | 10,250 | $296K | 0.0% | N/A | 0.003% | |
| 4/28/2026 | Praxis Investment Management Inc. | 10,061 | $290K | 0.0% | +12.9% | 0.003% | |
| 4/28/2026 | V Square Quantitative Management LLC | 3,362 | $97K | 0.0% | -33.3% | 0.001% | |
| 4/28/2026 | QRG Capital Management Inc. | 8,319 | $240K | 0.0% | N/A | 0.002% | |
| 4/27/2026 | Counterpoint Mutual Funds LLC | 8,807 | $254K | 0.0% | N/A | 0.002% | |
| 4/27/2026 | Private Advisor Group LLC | 98,590 | $2.84M | 0.0% | -5.2% | 0.027% | |
| 4/27/2026 | Leonteq Securities AG | 126,847 | $3.66M | 0.1% | +194.9% | 0.035% | |
| 4/27/2026 | Fjarde AP Fonden Fourth Swedish National Pension Fund | 125,556 | $3.62M | 0.0% | +96.5% | 0.034% | |
| 4/25/2026 | Strs Ohio | 44,700 | $1.29M | 0.0% | -9.3% | 0.012% | |
| 4/24/2026 | Root Financial Partners LLC | 1,725 | $50K | 0.0% | +22.9% | 0.000% | |
|
| 4/24/2026 | Letson Investment Management Inc. | 17,219 | $496K | 0.2% | +36.5% | 0.005% | |
| 4/24/2026 | Essex Financial Services Inc. | 22,318 | $643K | 0.0% | +16.3% | 0.006% | |
| 4/24/2026 | IFM Investors Pty Ltd | 58,479 | $1.69M | 0.0% | +5.8% | 0.016% | |
| 4/23/2026 | Lansforsakringar Fondforvaltning AB publ | 98,702 | $2.85M | 0.0% | N/A | 0.027% | |
| 4/22/2026 | Patriot Financial Group Insurance Agency LLC | 52,600 | $1.52M | 0.1% | +155.3% | 0.014% | |
| 4/22/2026 | Janney Montgomery Scott LLC | 36,690 | $1.06M | 0.0% | -4.3% | 0.010% | |
| 4/22/2026 | Nicholas Wealth LLC. | 27,664 | $798K | 0.5% | +7.3% | 0.008% | |
| 4/22/2026 | Pictet Asset Management Holding SA | 108,863 | $3.14M | 0.0% | -10.6% | 0.030% | |
| 4/22/2026 | Venturi Wealth Management LLC | 7,363 | $212K | 0.0% | N/A | 0.002% | |
| 4/20/2026 | Kestra Private Wealth Services LLC | 27,029 | $779K | 0.0% | -33.4% | 0.007% | |
| 4/20/2026 | Blue Trust Inc. | 1,380 | $40K | 0.0% | -14.4% | 0.000% | |
| 4/20/2026 | OP Asset Management Ltd | 29,592 | $853K | 0.0% | N/A | 0.008% | |
| 4/20/2026 | Banque Cantonale Vaudoise | 27,840 | $803K | 0.0% | -1.5% | 0.008% | |
| 4/18/2026 | Western Pacific Wealth Management LP | 1,658 | $48K | 0.0% | +152.0% | 0.000% | |
| 4/17/2026 | Wealth Management Partners LLC | 13,641 | $393K | 0.1% | +4.6% | 0.004% | |
| 4/17/2026 | AdvisorNet Financial Inc | 3,271 | $94K | 0.0% | -48.4% | 0.001% | |
| 4/16/2026 | SG Americas Securities LLC | 20,936 | $604K | 0.0% | +139.9% | 0.006% | |
| 4/16/2026 | Capstone Wealth Management Group LLC | 10,810 | $485K | 0.3% | +23.2% | 0.003% | |
| 4/16/2026 | Strong Tower Advisory Services | 32,259 | $930K | 0.2% | +3.1% | 0.009% | |
| 4/16/2026 | Polianta Ltd | 32,500 | $936K | 0.1% | +18.2% | 0.009% | |
| 4/16/2026 | BI Asset Management Fondsmaeglerselskab A S | 7,469 | $215K | 0.0% | -94.2% | 0.002% | |
| 4/15/2026 | Nations Financial Group Inc. IA ADV | 8,615 | $248K | 0.0% | -76.1% | 0.002% | |
| 3/20/2026 | Purpose Unlimited Inc. | 17,482 | $784K | 0.0% | N/A | 0.005% | |
| 3/17/2026 | Rockefeller Capital Management L.P. | 511,178 | $22.94M | 0.0% | +257.1% | 0.139% | |
| 3/13/2026 | Fund Advisors of America Inc FL | 10,311 | $463K | 0.4% | N/A | 0.003% | |
| 3/13/2026 | Spear Advisors LLC | 41,291 | $1.85M | 1.3% | N/A | 0.011% | |
| 3/9/2026 | Corient Private Wealth LLC | 61,437 | $2.76M | 0.0% | +29.5% | 0.017% | |
| 3/6/2026 | Hsbc Holdings PLC | 165,524 | $7.49M | 0.0% | +1,209.5% | 0.048% | |
| 3/4/2026 | Pure Financial Advisors LLC | 15,664 | $703K | 0.0% | +6.8% | 0.005% | |
| 3/4/2026 | SHP Wealth Management | 3,379 | $152K | 0.0% | N/A | 0.001% | |
| 3/3/2026 | Caitong International Asset Management Co. Ltd | 1,866 | $84K | 0.0% | -97.9% | 0.001% | |
| 3/2/2026 | CFO Capital Management LLC | 23,723 | $1.06M | 0.8% | N/A | 0.007% | |
| 2/25/2026 | Tempo Wealth LLC | 7,360 | $330K | 0.1% | N/A | 0.002% | |
| 2/19/2026 | Invesco Ltd. | 611,895 | $27.46M | 0.0% | +26.2% | 0.176% | |
| 2/19/2026 | Axxcess Wealth Management LLC | 5,117 | $230K | 0.0% | N/A | 0.001% | |
| 2/19/2026 | Corient Private Wealth LLC | 62,124 | $2.59M | 0.0% | +31.0% | 0.018% | |
| 2/18/2026 | Ameriflex Group Inc. | 1,054 | $47K | 0.0% | +157.1% | 0.000% | |
| 2/18/2026 | Mercer Global Advisors Inc. ADV | 24,790 | $1.11M | 0.0% | -14.7% | 0.007% | |
| 2/18/2026 | Vident Advisory LLC | 258,530 | $11.60M | 0.1% | +0.7% | 0.074% | |
| 2/18/2026 | Beacon Pointe Advisors LLC | 5,739 | $258K | 0.0% | N/A | 0.002% | |
| 2/18/2026 | Mackenzie Financial Corp | 46,182 | $2.09M | 0.0% | +134.9% | 0.013% | |
| 2/18/2026 | NewEdge Advisors LLC | 23,135 | $1.04M | 0.0% | -33.5% | 0.007% | |
| 2/18/2026 | Empowered Funds LLC | 4,910 | $220K | 0.0% | N/A | 0.001% | |
| 2/18/2026 | XTX Topco Ltd | 23,977 | $1.08M | 0.0% | N/A | 0.007% | |
| 2/18/2026 | Zacks Investment Management | 45,622 | $2.05M | 0.0% | -37.4% | 0.013% | |
| 2/18/2026 | Voloridge Investment Management LLC | 197,693 | $8.87M | 0.0% | -54.8% | 0.057% | |
| 2/18/2026 | VestGen Advisors LLC | 4,823 | $216K | 0.0% | -93.6% | 0.001% | |
| 2/18/2026 | Wellington Management Group LLP | 1,426,210 | $63.99M | 0.0% | +75.0% | 0.411% | |
| 2/18/2026 | Toronto Dominion Bank | 45,791 | $2.06M | 0.0% | N/A | 0.013% | |
| 2/18/2026 | Quadrature Capital Ltd | 570,797 | $25.61M | 0.3% | -21.0% | 0.164% | |
|
| 2/18/2026 | Man Group plc | 145,039 | $6.51M | 0.0% | -39.0% | 0.042% | |
| 2/18/2026 | Investment Management Corp of Ontario | 20,025 | $899K | 0.0% | N/A | 0.006% | |
| 2/18/2026 | Janus Henderson Group PLC | 55,433 | $2.49M | 0.0% | -51.4% | 0.016% | |
| 2/18/2026 | Engineers Gate Manager LP | 9,589 | $430K | 0.0% | N/A | 0.003% | |
| 2/18/2026 | Banco Bilbao Vizcaya Argentaria S.A. | 15,109 | $680K | 0.0% | +42.7% | 0.004% | |
| 2/18/2026 | Ballast Financial Advisors LLC | 10,000 | $449K | 0.5% | N/A | 0.003% | |
| 2/18/2026 | Altshuler Shaham Ltd | 21,000 | $942K | 0.0% | N/A | 0.006% | |
| 2/17/2026 | AQR Capital Management LLC | 68,114 | $3.06M | 0.0% | +20.3% | 0.020% | |
| 2/17/2026 | Abel Hall LLC | 17,254 | $774K | 0.2% | +180.1% | 0.005% | |
| 2/17/2026 | EFG International AG | 38,917 | $1.75M | 0.0% | N/A | 0.011% | |